TimeCST,TemperatureF,Dew PointF,Humidity,Sea Level PressureIn,VisibilityMPH,Wind Direction,Wind SpeedMPH,Gust SpeedMPH,PrecipitationIn,Events,Conditions,WindDirDegrees,DateUTC
12:51 AM,52.0,44.1,74,30.14,10.0,North,11.5,19.6,N/A,,Clear,350,2013-02-16 06:51:00
1:51 AM,51.1,42.1,71,30.14,10.0,NNW,12.7,21.9,N/A,,Clear,340,2013-02-16 07:51:00
2:51 AM,50.0,41.0,71,30.14,10.0,North,10.4,17.3,N/A,,Clear,350,2013-02-16 08:51:00
3:51 AM,51.1,41.0,68,30.16,10.0,NNW,15.0,20.7,N/A,,Mostly Cloudy,340,2013-02-16 09:51:00
4:51 AM,51.1,39.9,66,30.17,10.0,NNW,16.1,24.2,N/A,,Overcast,340,2013-02-16 10:51:00
5:51 AM,48.9,41.0,74,30.19,10.0,NNW,16.1,24.2,0.00,Rain,Light Rain,330,2013-02-16 11:51:00
6:51 AM,48.0,39.0,71,30.20,10.0,NW,9.2,-,0.00,,Partly Cloudy,320,2013-02-16 12:51:00
7:51 AM,50.0,37.9,63,30.24,10.0,NNW,13.8,-,N/A,,Clear,330,2013-02-16 13:51:00
8:51 AM,50.0,35.1,57,30.27,10.0,NNW,18.4,29.9,N/A,,Partly Cloudy,330,2013-02-16 14:51:00
9:51 AM,50.0,35.1,57,30.28,10.0,NNW,15.0,27.6,N/A,,Clear,340,2013-02-16 15:51:00
10:51 AM,51.1,34.0,52,30.28,10.0,NNW,18.4,28.8,N/A,,Clear,330,2013-02-16 16:51:00
11:51 AM,52.0,30.9,45,30.27,10.0,NW,18.4,27.6,N/A,,Clear,320,2013-02-16 17:51:00
12:51 PM,53.1,32.0,45,30.25,10.0,NW,15.0,25.3,N/A,,Clear,310,2013-02-16 18:51:00
1:51 PM,53.1,30.0,41,30.22,10.0,NW,17.3,27.6,N/A,,Clear,320,2013-02-16 19:51:00
2:51 PM,52.0,27.0,38,30.22,10.0,NW,19.6,26.5,N/A,,Clear,310,2013-02-16 20:51:00
3:51 PM,52.0,26.1,37,30.21,10.0,NW,18.4,25.3,N/A,,Clear,310,2013-02-16 21:51:00
4:51 PM,51.1,24.1,35,30.22,10.0,NW,11.5,20.7,N/A,,Clear,320,2013-02-16 22:51:00
5:51 PM,48.9,23.0,36,30.23,10.0,NW,12.7,20.7,N/A,,Clear,320,2013-02-16 23:51:00
6:51 PM,48.0,25.0,41,30.26,10.0,NW,10.4,-,N/A,,Clear,320,2013-02-17 00:51:00
7:51 PM,48.0,26.1,42,30.28,10.0,NW,12.7,-,N/A,,Clear,320,2013-02-17 01:51:00
8:51 PM,48.0,26.1,42,30.30,10.0,NNW,13.8,19.6,N/A,,Clear,340,2013-02-17 02:51:00
9:51 PM,46.0,28.9,51,30.31,10.0,NNW,6.9,-,N/A,,Clear,340,2013-02-17 03:51:00
10:51 PM,45.0,30.9,58,30.31,10.0,NNW,4.6,-,N/A,,Clear,340,2013-02-17 04:51:00
11:51 PM,45.0,30.0,56,30.31,10.0,NNW,3.5,-,N/A,,Clear,330,2013-02-17 05:51:00